Weather History for KPBH - February, 2014

Change the Weather History Date:

Sunday, February 23, 2014

  Actual Average (WUND) Record (WUND)
Temperature  
Mean Temperature 6 °F -  
Max Temperature 14 °F - - (-1)
Min Temperature -2 °F - - (-1)
Degree Days  
Heating Degree Days 59    
Moisture  
Dew Point -1 °F    
Average Humidity 71    
Maximum Humidity 84    
Minimum Humidity 57    
Precipitation  
Precipitation 0.00 in - - ()
Sea Level Pressure  
Sea Level Pressure 29.98 in    
Wind  
Wind Speed 7 mph (West)    
Max Wind Speed 17 mph    
Max Gust Speed 22 mph    
Visibility 10 miles    
Events      
Averages and records for this station are not official NWS values.
T = Trace of Precipitation, MM = Missing Value Source: NWS Daily Summary

Daily Weather History Graph

Daily Weather History Graph

Search for Another Location

Airport or City:

Trip Planner

Search our weather history database for the weather conditions in past years. The results will help you decide how hot, cold, wet, or windy it might be!

Date:

Astronomy

Feb. 23, 2014 Rise Set
Actual Time 6:50 AM CST 5:40 PM CST
Civil Twilight 6:20 AM CST 6:10 PM CST
Nautical Twilight 5:46 AM CST 6:44 PM CST
Astronomical Twilight 5:11 AM CST 7:19 PM CST
Moon 1:58 AM CST (2/23) 11:33 AM CST (2/23)
Length of Visible Light 11h 49m
Length of Day
10h 49m
Last Quarter, 38% of the Moon is Illuminated
Feb 23
Last Quarter
Mar 1
New
Mar 8
First Quarter
Mar 16
Full
Mar 23
Last Quarter

Hourly Weather History & Observations

Time (CST) Temp. Windchill Dew Point Humidity Pressure Visibility Wind Dir Wind Speed Gust Speed Precip Events Conditions
12:20 AM 2.3 °F -11.4 °F -3.1 °F 78% 29.91 in 10.0 mi WSW 8.1 mph - N/A   Clear
12:35 AM 2.1 °F -9.0 °F -3.3 °F 78% 29.91 in 10.0 mi WSW 5.8 mph - N/A   Clear
12:55 AM 1.4 °F -11.3 °F -4.0 °F 78% 29.92 in 10.0 mi West 6.9 mph - N/A   Clear
1:15 AM 1.4 °F -11.3 °F -4.0 °F 78% 29.92 in 10.0 mi WSW 6.9 mph - N/A   Clear
1:35 AM 1.0 °F -11.7 °F -4.0 °F 79% 29.93 in 10.0 mi WSW 6.9 mph - N/A   Scattered Clouds
1:55 AM 1.4 °F -11.3 °F -3.6 °F 79% 29.94 in 10.0 mi West 6.9 mph - N/A   Overcast
2:15 AM 1.4 °F -9.9 °F -4.0 °F 78% 29.94 in 10.0 mi West 5.8 mph - N/A   Overcast
2:35 AM 1.4 °F -11.3 °F -4.0 °F 78% 29.94 in 10.0 mi West 6.9 mph - N/A   Overcast
2:55 AM 0.7 °F -10.7 °F -4.2 °F 80% 29.94 in 10.0 mi West 5.8 mph - N/A   Mostly Cloudy
3:15 AM 0.1 °F -11.4 °F -4.5 °F 81% 29.95 in 10.0 mi West 5.8 mph - N/A   Scattered Clouds
3:35 AM -0.4 °F -10.4 °F -4.9 °F 81% 29.95 in 10.0 mi West 4.6 mph - N/A   Scattered Clouds
3:55 AM -0.4 °F -10.4 °F -4.9 °F 81% 29.96 in 10.0 mi WSW 4.6 mph - N/A   Scattered Clouds
4:15 AM -0.9 °F -11.0 °F -5.1 °F 83% 29.96 in 10.0 mi WSW 4.6 mph - N/A   Clear
4:35 AM -1.3 °F -13.1 °F -5.4 °F 83% 29.97 in 10.0 mi WSW 5.8 mph - N/A   Clear
4:55 AM -1.7 °F -13.5 °F -5.8 °F 83% 29.97 in 10.0 mi WSW 5.8 mph - N/A   Clear
5:15 AM -1.7 °F -14.9 °F -5.8 °F 83% 29.97 in 10.0 mi WSW 6.9 mph - N/A   Clear
5:35 AM -2.0 °F -13.9 °F -6.0 °F 83% 29.97 in 10.0 mi WSW 5.8 mph - N/A   Clear
5:55 AM -2.2 °F -15.6 °F -6.3 °F 83% 29.97 in 10.0 mi WSW 6.9 mph - N/A   Clear
6:15 AM -2.2 °F -15.6 °F -6.3 °F 83% 29.97 in 10.0 mi WSW 6.9 mph - N/A   Clear
6:35 AM -2.4 °F -15.8 °F -6.3 °F 83% 29.98 in 10.0 mi WSW 6.9 mph - N/A   Clear
6:55 AM -2.9 °F -11.2 °F -6.7 °F 84% 29.98 in 10.0 mi West 3.5 mph - N/A   Clear
7:15 AM -2.7 °F -11.0 °F -6.7 °F 83% 29.98 in 10.0 mi WSW 3.5 mph - N/A   Clear
7:35 AM -2.2 °F -10.4 °F -6.7 °F 81% 29.99 in 10.0 mi WSW 3.5 mph - N/A   Clear
7:55 AM -1.3 °F -14.5 °F -5.8 °F 81% 29.99 in 10.0 mi WSW 6.9 mph - N/A   Clear
8:15 AM -0.2 °F -11.8 °F -5.3 °F 79% 29.99 in 10.0 mi West 5.8 mph - N/A   Clear
8:35 AM 1.4 °F -11.3 °F -4.7 °F 76% 29.98 in 10.0 mi West 6.9 mph - N/A   Scattered Clouds
8:55 AM 2.7 °F -10.9 °F -4.2 °F 73% 29.99 in 10.0 mi West 8.1 mph - N/A   Scattered Clouds
9:15 AM 3.7 °F -8.4 °F -4.0 °F 70% 29.99 in 10.0 mi WNW 6.9 mph 17.3 mph N/A   Scattered Clouds
9:35 AM 4.6 °F -11.3 °F -3.6 °F 69% 29.99 in 10.0 mi West 11.5 mph 17.3 mph N/A   Scattered Clouds
9:55 AM 5.7 °F -7.2 °F -2.9 °F 68% 29.99 in 10.0 mi West 8.1 mph 19.6 mph N/A   Clear
10:15 AM 6.8 °F -10.0 °F -2.4 °F 66% 29.99 in 10.0 mi WNW 13.8 mph 20.7 mph N/A   Scattered Clouds
10:35 AM 7.9 °F -3.5 °F -1.7 °F 65% 29.99 in 10.0 mi West 6.9 mph 17.3 mph N/A   Scattered Clouds
10:55 AM 9.1 °F -4.9 °F -1.1 °F 63% 29.99 in 10.0 mi West 10.4 mph 16.1 mph N/A   Scattered Clouds
11:15 AM 10.2 °F -1.7 °F -0.0 °F 63% 29.99 in 10.0 mi West 8.1 mph 16.1 mph N/A   Scattered Clouds
11:35 AM 10.8 °F -2.8 °F 0.1 °F 62% 29.99 in 10.0 mi West 10.4 mph 18.4 mph N/A   Scattered Clouds
11:55 AM 11.1 °F -6.2 °F 0.5 °F 62% 29.98 in 10.0 mi WSW 17.3 mph 20.7 mph N/A   Scattered Clouds
12:15 PM 11.5 °F -1.9 °F 0.5 °F 61% 29.98 in 10.0 mi West 10.4 mph 17.3 mph N/A   Scattered Clouds
12:35 PM 12.7 °F -0.4 °F 1.4 °F 61% 29.97 in 10.0 mi West 10.4 mph 17.3 mph N/A   Scattered Clouds
12:55 PM 12.9 °F 1.6 °F 1.4 °F 60% 29.97 in 10.0 mi West 8.1 mph 21.9 mph N/A   Mostly Cloudy
1:15 PM 13.1 °F 0.9 °F 1.6 °F 60% 29.97 in 10.0 mi West 9.2 mph - N/A   Mostly Cloudy
1:35 PM 12.9 °F 0.7 °F 1.9 °F 62% 29.97 in 10.0 mi West 9.2 mph 18.4 mph N/A   Mostly Cloudy
1:55 PM 14.0 °F -0.2 °F 2.3 °F 60% 29.97 in 10.0 mi West 12.7 mph 21.9 mph N/A   Mostly Cloudy
2:15 PM 13.6 °F 0.7 °F 1.9 °F 60% 29.97 in 10.0 mi West 10.4 mph 21.9 mph N/A   Mostly Cloudy
2:35 PM 14.7 °F 1.4 °F 2.3 °F 58% 29.97 in 10.0 mi West 11.5 mph 18.4 mph N/A   Mostly Cloudy
2:55 PM 14.7 °F 0.1 °F 2.5 °F 58% 29.97 in 10.0 mi WSW 13.8 mph 18.4 mph N/A   Mostly Cloudy
3:15 PM 14.2 °F 0.7 °F 2.3 °F 59% 29.97 in 10.0 mi West 11.5 mph 21.9 mph N/A   Overcast
3:35 PM 14.5 °F 4.6 °F 1.8 °F 57% 29.97 in 10.0 mi West 6.9 mph 18.4 mph N/A   Mostly Cloudy
3:55 PM 14.0 °F 1.2 °F 2.3 °F 60% 29.98 in 10.0 mi West 10.4 mph 17.3 mph N/A   Mostly Cloudy
4:15 PM 14.5 °F 2.7 °F 1.8 °F 57% 29.98 in 10.0 mi West 9.2 mph 18.4 mph N/A   Mostly Cloudy
4:35 PM 14.7 °F 0.7 °F 1.9 °F 57% 29.98 in 10.0 mi West 12.7 mph 18.4 mph N/A   Scattered Clouds
4:55 PM 14.5 °F 3.6 °F 2.3 °F 58% 29.98 in 10.0 mi West 8.1 mph 16.1 mph N/A   Mostly Cloudy
5:15 PM 14.0 °F 2.0 °F 1.6 °F 58% 29.98 in 10.0 mi West 9.2 mph 21.9 mph N/A   Mostly Cloudy
5:35 PM 13.1 °F 0.1 °F 1.9 °F 61% 29.99 in 10.0 mi West 10.4 mph - N/A   Scattered Clouds
5:55 PM 12.2 °F 0.7 °F 1.4 °F 62% 29.99 in 10.0 mi West 8.1 mph - N/A   Scattered Clouds
6:15 PM 11.7 °F 0.0 °F 1.2 °F 63% 29.99 in 10.0 mi WSW 8.1 mph - N/A   Clear
6:35 PM 11.3 °F -1.3 °F 1.2 °F 64% 29.99 in 10.0 mi WSW 9.2 mph - N/A   Clear
6:55 PM 10.4 °F -1.5 °F 1.6 °F 68% 30.00 in 10.0 mi WSW 8.1 mph - N/A   Clear
7:15 PM 10.2 °F -1.7 °F 1.8 °F 69% 30.00 in 10.0 mi WSW 8.1 mph - N/A   Clear
7:35 PM 9.5 °F -2.6 °F 1.4 °F 70% 30.00 in 10.0 mi WSW 8.1 mph - N/A   Clear
7:55 PM 9.0 °F -0.9 °F 1.4 °F 71% 30.00 in 10.0 mi WSW 5.8 mph - N/A   Clear
8:15 PM 8.4 °F -1.6 °F 1.4 °F 73% 30.00 in 10.0 mi WSW 5.8 mph - N/A   Clear
8:35 PM 8.1 °F -2.0 °F 1.2 °F 74% 30.00 in 10.0 mi WSW 5.8 mph - N/A   Clear
8:55 PM 7.3 °F -4.1 °F 0.7 °F 74% 30.01 in 10.0 mi WSW 6.9 mph - N/A   Clear
9:15 PM 6.8 °F -0.1 °F 0.3 °F 75% 30.01 in 10.0 mi WSW 3.5 mph - N/A   Clear
9:35 PM 6.8 °F - 0.5 °F 75% 30.02 in 10.0 mi Calm Calm - N/A   Clear
9:55 PM 6.8 °F -0.1 °F -0.0 °F 74% 30.02 in 10.0 mi West 3.5 mph - N/A   Mostly Cloudy
10:15 PM 7.2 °F 0.3 °F -0.2 °F 72% 30.02 in 10.0 mi West 3.5 mph - N/A   Overcast
10:35 PM 7.5 °F -2.6 °F -0.0 °F 71% 30.02 in 10.0 mi West 5.8 mph - N/A   Overcast
10:55 PM 7.5 °F -5.0 °F -0.4 °F 70% 30.03 in 10.0 mi West 8.1 mph - N/A   Overcast
11:15 PM 7.5 °F -7.7 °F -0.4 °F 70% 30.03 in 10.0 mi WNW 11.5 mph 17.3 mph N/A   Overcast
11:35 PM 7.5 °F -5.0 °F -0.4 °F 70% 30.03 in 10.0 mi WNW 8.1 mph - N/A   Overcast
11:55 PM 7.3 °F -6.2 °F -0.4 °F 71% 30.03 in 10.0 mi WNW 9.2 mph - N/A   Overcast